Regional Weather Roundup
Issued by NWS

Home | Current Version | Previous Version | Graphics & Text | Print | Product List | Glossary On
Versions: 1 2 3 4 5 6 7 8 9 10 11 12 13 14 15 16 17 18 19 20 21 22 23 24 25 26 27 28 29 30 31 32 33 34 35 36 37 38 39 40 41 42 43 44 45 46 47 48 49 50
000
ASUS43 KDTX 041110
RWRMI
MICHIGAN HOURLY REGIONAL WEATHER ROUNDUP
NATIONAL WEATHER SERVICE DETROIT/PONTIAC MI
700 AM EDT FRI SEP 04 2015

NOTE: "FAIR" INDICATES FEW OR NO CLOUDS BELOW 12,000 FEET WITH NO
SIGNIFICANT WEATHER AND/OR OBSTRUCTION TO VISIBILITY.

MIZ047>049-052>055-059>063-066>070-074>076-081>083-041200-
SOUTHEAST LOWER MICHIGAN

CITY           SKY/WX    TMP DP  RH WIND       PRES   REMARKS
ADRIAN         PTCLDY    66  64  93 CALM      29.99R
ALMA           FOG       67  67 100 CALM      29.97R VSB 1
ANN ARBOR      MOCLDY    66  65  96 S3        29.98R
BAD AXE        RAIN      68  67  97 E3        30.01R
CARO           CLOUDY    67  67  99 E3        29.98R FOG
DETROIT CITY   CLOUDY    70  67  90 S6        29.98R
DETROIT        MOCLDY    69  66  90 SE6       29.98R
FLINT          CLOUDY    70  66  87 CALM      29.98R
GROSSE ILE     MOCLDY    72  66  83 S14       29.97R
HILLSDALE      CLOUDY    68  68 100 CALM      29.99R FOG
HOWELL         CLOUDY    67  66  97 S6        29.98S

CITY           SKY/WX    TMP DP  RH WIND       PRES   REMARKS
JACKSON        CLOUDY    68  67  96 SE6       29.98R FOG
LAMBERTVILLE   PTCLDY    67  64  91 CALM      29.98S FOG
LANSING        CLOUDY    68  67  96 CALM      29.97R FOG
LAPEER         CLOUDY    66  66  99 CALM      30.00R FOG
MASON          CLOUDY    69  67  91 CALM      29.97R FOG
MONROE         MOCLDY    69  65  88 S6        29.97R
MT. CLEMENS    PTCLDY    65  65  97 E2        29.97R
PONTIAC        CLOUDY    69  67  93 S7        29.99R
PORT HOPE        N/A     70  69  97 E12       29.99R
PORT HURON     CLOUDY    66  66 100 CALM      30.00R FOG
TRI CITIES     CLOUDY    69  66  90 E3        29.98R FOG
MIDLAND        CLOUDY    68  67  96 E3        29.97R FOG
TROY           CLOUDY    68  68  98 CALM      30.00R FOG
SAGINAW HB     CLOUDY    68  66  94 E6        29.98R FOG
$$
MIZ043>046-050>051-056>058-064>065-071>073-077>080-041200-
SOUTHWEST LOWER MICHIGAN

CITY           SKY/WX    TMP DP  RH WIND       PRES   REMARKS
BATTLE CREEK   CLOUDY    68  66  93 W5        29.99R FOG
BENTON HARBOR  CLOUDY    69  66  90 CALM      29.98R
BIG RAPIDS     CLOUDY    66  66  97 NE3       29.98R FOG
COLDWATER      CLOUDY    68  68 100 W5        29.99R FOG
FREMONT        CLOUDY    67  67 100 N3        29.97R FOG
HOLLAND        CLOUDY    69  67  93 W3        29.98R
GRAND RAPIDS   CLOUDY    68  67  96 W6        29.97R
IONIA          CLOUDY    68  68  99 W5        29.97R FOG
KALAMAZOO      CLOUDY    69  64  84 NW6       29.99R HAZE
LUDINGTON      CLOUDY    71  69  93 CALM      29.97S
MARSHALL       CLOUDY    67  65  94 W3        29.98R FOG
MOUNT PLEASANT DRZL/FOG  69  67  94 CALM      29.97R VSB 3/4
MUSKEGON       CLOUDY    70  65  84 NW5       29.97R
SOUTH HAVEN    CLOUDY    69  65  88 CALM      29.98R
$$
MIZ016>042-041200-
NORTHERN LOWER MICHIGAN

CITY           SKY/WX    TMP DP  RH WIND       PRES   REMARKS
ALPENA         FOG       67  66  97 E3        30.02R VSB 1/4
BEAVER ISLAND  CLEAR     65  60  84 E8        30.03R
BELLAIRE       PTCLDY    65  63  94 N3        30.00R
CADILLAC       CLOUDY    66  65  97 E6        30.00R
CHARLEVOIX     MOCLDY    67  64  90 N3        30.04R
FRANKFORT      MOCLDY    67  65  94 CALM      29.99R
GAYLORD        CLOUDY    66  66 100 E5        30.02S FOG
GRAYLING       CLOUDY    65  64  98 E6        30.02R FOG
HARBOR SPRINGS CLOUDY    66  61  83 NE6       30.01R
HOUGHTON LAKE  CLOUDY    65  64  97 NE8       30.01R
MANISTEE       PTCLDY    66  63  88 NE3       29.99R
OSCODA         CLOUDY    68  68  99 E3        30.00R FOG
PELLSTON       CLOUDY    64  61  90 N7        30.04R
ROGERS CITY    PTCLDY    66  61  85 E6        30.03R
TRAVERSE CITY  CLOUDY    68  65  90 CALM      29.98R
$$
MIZ007>008-015-041200-
EASTERN UPPER MICHIGAN

CITY           SKY/WX    TMP DP  RH WIND       PRES   REMARKS
KINROSS        PTCLDY    64  57  77 NE6       30.06R
MACKINAC ISLAN PTCLDY    65  57  75 NE12      30.04R
NEWBERRY       PTCLDY    60  58  91 N5        30.06S
S. S. MARIE    PTCLDY    64  55  72 E5        30.06R
MUNISING         N/A     57  53  86 S3        30.05S
$$
MIZ004>006-011>014-085-041200-
CENTRAL UPPER MICHIGAN

CITY           SKY/WX    TMP DP  RH WIND       PRES   REMARKS
MANISTIQUE     CLEAR     59  57  93 N5        30.04R
ESCANABA       CLEAR     64  59  82 NE8       30.01F
MENOMINEE      CLEAR     61  57  88 N6        30.01R
SAWYER-GWINN   CLEAR     63  57  82 E7        30.07R
$$
MIZ001>003-009>011-084-041200-
WESTERN UPPER MICHIGAN

CITY           SKY/WX    TMP DP  RH WIND       PRES   REMARKS
IRON MOUNTAIN  CLEAR     57  56  96 N5        30.04S
HOUGHTON       CLEAR     60  56  86 E5        30.05S
COPPER HARBOR    N/A     63  57  81 VRB5      30.04S
IRONWOOD       CLEAR     61  61 100 CALM      30.01R
$$

ABBREVIATIONS USED IN REMARKS
   TC - TEMPERATURE IN CELSIUS
  WCI - WIND CHILL INDEX
   HX - HEAT INDEX
  VSB - VISIBILITY



USA.gov is the U.S. government's official web portal to all federal, state and local government web resources and services.